Regional Weather Roundup
Issued by NWS

Home | Current Version | Previous Version | Graphics & Text | Print | Product List | Glossary On
Versions: 1 2 3 4 5 6 7 8 9 10 11 12 13 14 15 16 17 18 19 20 21 22 23 24 25 26 27 28 29 30 31 32 33 34 35 36 37 38 39 40 41 42 43 44 45 46 47 48 49 50
481
ASUS43 KDMX 261103
RWRIA

WEATHER ROUNDUP FOR IOWA
NATIONAL WEATHER SERVICE DES MOINES IA
600 AM CDT TUE JUL 26 2016

NOTE: "FAIR" INDICATES FEW OR NO CLOUDS BELOW 12,000 FEET WITH NO
SIGNIFICANT WEATHER AND/OR OBSTRUCTIONS TO VISIBILITY.

* - THESE STATIONS ARE NOT NWS STATIONS...THUS NOT UNDER NWS
QUALITY CONTROL.  THEY ALSO DO NOT REPORT WEATHER SUCH
AS PRECIPITATION OR FOG.

IAZ001>003-012>014-020>022-031>034-043>046-261200-
   NORTHWEST IOWA

CITY           SKY/WX    TMP DP  RH WIND       PRES   REMARKS
CARROLL *      CLEAR     61  61 100 CALM      30.09S
CHEROKEE *     CLEAR     61  61 100 CALM      30.09S
DENISON *      CLEAR     59  59 100 CALM      30.08S
LE MARS *      CLEAR     63  61  94 CALM      30.09S
SHELDON *      CLEAR     63  63 100 S6        30.07F
SIOUX CITY     CLEAR     63  61  93 SE5       30.07F
SPENCER        CLEAR     62  60  93 CALM      30.09S
STORM LAKE *   CLEAR     64  61  88 SW6       30.10F
$$

IAZ055>058-069>071-079>083-090>094-261200-
   SOUTHWEST IOWA

CITY           SKY/WX    TMP DP  RH WIND       PRES   REMARKS
ATLANTIC *     CLEAR     59  59 100 N3        30.10R
CLARINDA *       N/A     63  63 100 MISG      30.11S
COUNCIL BLFS * CLEAR     66  63  88 CALM      30.09S
CRESTON *      CLEAR     63  61  94 CALM      30.11S
HARLAN  *      CLEAR     61  61 100 CALM      30.13R FOG
LAMONI         PTCLDY    64  62  93 N3        30.09S
RED OAK *      CLEAR     63  63 100 N3        30.09S
SHENANDOAH *   FOG       63  63 100 N3        30.09S VSB 3/4
$$

IAZ047>049-059>061-072>074-084-261200-
   CENTRAL IOWA

CITY           SKY/WX    TMP DP  RH WIND       PRES   REMARKS
AMES           CLEAR     62  62 100 CALM      30.09R
ANKENY *         N/A    N/A N/A N/A MISG        N/A
BOONE *          N/A     66  63  88 CALM      30.09R
CHARITON *       N/A    N/A N/A N/A MISG        N/A
DES MOINES     PTCLDY    69  66  90 CALM      30.08R
GRINNELL*      PTCLDY    63  61  94 CALM      30.09S
KNOXVILLE *    CLEAR     66  64  94 CALM      30.07S
MARSHALLTOWN   CLEAR     61  60  97 NW6       30.08R
NEWTON *       PTCLDY    66  64  94 NE3       30.08S
PELLA *        CLEAR     64  63  96 CALM      30.09S
PERRY *          N/A     62  61  99 CALM      30.09S
$$

IAZ004>006-015-016-023>025-035-036-261200-
   NORTH CENTRAL IOWA

CITY           SKY/WX    TMP DP  RH WIND       PRES   REMARKS
ALGONA *       CLEAR     66  64  94 SW6       30.09S
ESTHERVILLE    CLEAR     64  62  93 SW6       30.08S
FORT DODGE *   CLEAR     63  63 100 CALM      30.10S
MASON CITY     CLEAR     61  60  97 CALM      30.11S
FOREST CITY *    N/A     59  59 100 CALM      30.10R FOG
IOWA FALLS *     N/A     63  61  94 CALM      30.11R
$$

IAZ007>011-017>019-026>030-037>042-050>054-066-261200-
   NORTHEAST IOWA

CITY           SKY/WX    TMP DP  RH WIND       PRES   REMARKS
CEDAR RAPIDS   CLEAR     62  62 100 NW3       30.07S
CHARLES CITY * CLEAR     61  61 100 CALM      30.10R
CLINTON *      CLEAR     65  64  97 N6        30.07S
DECORAH *      CLEAR     63  63 100 CALM      30.08S FOG
DUBUQUE        CLEAR     66  62  87 NE7       30.09S
MONTICELLO *   CLEAR     61  61 100 CALM      30.08S
WATERLOO       CLEAR     62  60  93 CALM      30.07S
$$

IAZ064-065-067-068-078-261200-
   EAST CENTRAL IOWA

CITY           SKY/WX    TMP DP  RH WIND       PRES   REMARKS
DAVENPORT      PTCLDY    64  62  93 N3        30.07S
IOWA CITY      CLEAR     65  64  97 CALM      30.08R
MT. PLEASANT *   N/A     66  66 100 CALM      30.07S
MUSCATINE *    CLEAR     64  63  94 CALM      30.07R
QUAD CITIES    PTCLDY    65  62  90 CALM      30.06R
$$

IAZ062-063-075>077-085>089-095>099-261200-
   SOUTHEAST IOWA

CITY           SKY/WX    TMP DP  RH WIND       PRES   REMARKS
BURLINGTON     CLEAR     65  65 100 N5        30.06R
FAIRFIELD *    CLEAR     64  63  94 N6        30.07R
KEOKUK *       CLEAR     66  64  94 CALM      30.05S
CENTERVILLE *    N/A     61  61 100 CALM      30.09S FOG
OTTUMWA        CLEAR     63  61  93 N3        30.07S
WASHINGTON *   CLEAR     64  63  94 N5        30.09R
$$

ABBREVIATIONS USED IN REMARKS
   TC - TEMPERATURES IN CELSIUS
  WCI - WIND CHILL INDEX
   HX - HEAT INDEX
  VSB - VISIBILITY
$$





USA.gov is the U.S. government's official web portal to all federal, state and local government web resources and services.